sat.trackr.live / text

‹ back to catalog

STARLINK-36047

NORAD 66795 · 2025-278E

PAYLOAD ACTIVE UNKNOWN

§ Identity

Operator
Country
US
Launch date
2025-12-01
Launch site
AFETR
Launch vehicle
Mass (kg)
RCS (m²)

Purposes: comms

External: N2YO · Heavens-Above · Gunter

§ Orbital elements

Epoch: 2026-05-25T02:22:14.403648Z

Period
94.27 min
Inclination
43.0034°
Eccentricity
0.0001130
Mean motion
15.27586446 rev/d
Perigee alt
482.3 km
Apogee alt
483.8 km
Semi-major
6,861.2 km
B*
4.5517e-4
RAAN
42.9603°
Arg perigee
274.4307°
Mean anomaly
85.6415°
Rev number
2,689

§ Raw data

STARLINK-360471 66795U 25278E   26145.09877782  .00012287  00000+0  45517-3 0  99972 66795  43.0034  42.9603 0001130 274.4307  85.6415 15.27586446 26897

JSON: /api/v1/satellites/66795 · /tle

For live sub-satellite position, see the globe view (requires WebGL).

§ Visibility from observer

Set your observer location to see the next 7 days of passes ≥ 10°. The values pass through the URL so the page stays shareable.

No JS? Fill the form by hand. The geolocation button needs JavaScript.